Location: Seattle
(47.6064°N, 122.3308°W)
Time: 17:29:54
(UTC-08:00)

N. Korean satellite - Pass Details

Date: 04 December 2022
Orbit: 408 x 444 km, 97.3° (Epoch: 28 January)

Event Time Altitude Azimuth Distance (km) Brightness Sun altitude
Rises 04:44:28 0° 25° (NNE) 2,519 10.5 -28.7°
Reaches altitude 10° 04:46:54 10° 42° (NE) 1,630 9.7 -28.3°
Maximum altitude 04:49:39 21° 94° (E) 1,086 9.0 -27.9°
Drops below altitude 10° 04:52:20 10° 145° (SE) 1,598 9.6 -27.4°
Sets 04:54:41 0° 162° (SSE) 2,454 10.4 -27.0°
